Flag Weather past 2 weeks in Chula Vista, California, U.S.A.

Now
58 °F

Clear.


Feels Like: 57 °F
Forecast: 58 / 77 °F
Wind: 7 mph from Southeast

Location: Brown Field Municipal Airport

Current Time: Nov 27, 2014 at 10:12:59 PM

Latest Report: Nov 27, 2014 at 8:53 PM


Visibility: 10 mi

Pressure: 30.01 "Hg

Humidity: 28%

Dew point: 25 °F

Location of Chula VistaLocation

Historic Weather in Chula Vista — Graph

°F

Chula Vista temperature yesterday

Maximum temperature yesterday: 84 °F (at 12:53 PM)
Minimum temperature yesterday: 51 °F (at 2:53 AM)
Average temperature yesterday: 67 °F

Past Weeks' High & Low Weather Summary

 TemperatureHumidityPressure
High87 °F (Nov 27, 10:53 AM)97% (Nov 22, 2:53 AM)30.35 "Hg (Nov 22, 2:53 AM)
Low44 °F (Nov 20, 5:53 AM)4% (Nov 18, 11:53 AM)29.94 "Hg (Nov 21, 3:53 AM)
Average62 °F50%30.09 "Hg
* Reported Nov 12 8:53 PM — Nov 27 8:53 PM, Chula Vista, Weather by CustomWeather, © 2014

Note: Actual official high and low records may vary slightly from our data, if they occured in-between our weather recording intervals... More about our weather records

Advertising

Chula Vista weather history for previous 24 hours

 ConditionsComfort  
Time TempWeatherWind HumidityBarometerVisibility
8:53 PM
Nov 27
58 °FClear.7 mph28%30.01 "Hg10 mi
7:53 PM65 °FClear.No wind23%30.02 "Hg10 mi
6:53 PM68 °FClear.No wind27%30.02 "Hg10 mi
5:53 PM69 °FClear.No wind30%30.02 "Hg10 mi
4:53 PM73 °FClear.3 mph21%30.01 "Hg10 mi
3:53 PM79 °FSunny.5 mph10%30.01 "Hg10 mi
2:53 PM81 °FSunny.8 mph11%30.01 "Hg10 mi
1:53 PM83 °FSunny.9 mph10%30.00 "Hg10 mi
12:53 PM84 °FSunny.9 mph12%30.01 "Hg10 mi
11:53 AM87 °FSunny.7 mph7%30.03 "Hg10 mi
10:53 AM87 °FSunny.6 mph7%30.06 "Hg10 mi
9:53 AM84 °FSunny.3 mph8%30.08 "Hg10 mi
8:53 AM80 °FSunny.No wind10%30.09 "Hg10 mi
7:53 AM74 °FSunny.5 mph12%30.09 "Hg10 mi
6:53 AM63 °FSunny.7 mph18%30.08 "Hg10 mi
5:53 AM64 °FClear.10 mph18%30.07 "Hg10 mi
4:53 AM61 °FClear.5 mph22%30.07 "Hg10 mi
3:53 AM58 °FClear.5 mph25%30.07 "Hg10 mi
2:53 AM64 °FClear.7 mph18%30.07 "Hg10 mi
1:53 AM61 °FClear.7 mph23%30.09 "Hg10 mi
12:53 AM64 °FClear.6 mph22%30.09 "Hg10 mi
11:53 PM
Nov 26
59 °FClear.5 mph27%30.10 "Hg10 mi
10:53 PM61 °FClear.5 mph26%30.11 "Hg10 mi
Weather by CustomWeather, © 2014

See weather overviewHow to use our weather pages